EDT,Max TemperatureF,Mean TemperatureF,Min TemperatureF,Max Dew PointF,MeanDew PointF,Min DewpointF,Max Humidity, Mean Humidity, Min Humidity, Max Sea Level PressureIn, Mean Sea Level PressureIn, Min Sea Level PressureIn, Max VisibilityMiles, Mean VisibilityMiles, Min VisibilityMiles, Max Wind SpeedMPH, Mean Wind SpeedMPH, Max Gust SpeedMPH,PrecipitationIn, CloudCover, Events, WindDirDegrees
2013-10-1,77,67,56,61,57,54,100,75,50,30.09,30.04,30.00,10,6,0,17,6,21,0.00,3,Fog,224
2013-10-2,82,70,58,64,60,55,93,74,54,30.10,30.06,30.03,8,6,4,13,6,16,0.00,2,,245
2013-10-3,79,72,65,68,64,61,93,79,64,30.10,30.06,30.01,10,4,0,18,7,21,1.54,7,Rain-Thunderstorm,183
2013-10-4,81,72,63,67,64,62,93,76,58,30.09,30.06,30.03,10,5,2,14,6,20,T,5,Rain,224
2013-10-5,74,69,64,70,66,63,93,86,79,30.08,30.03,29.97,9,5,1,20,6,29,1.30,7,Rain-Thunderstorm,199
2013-10-6,80,68,55,68,64,55,93,76,58,29.94,29.83,29.71,10,6,1,32,10,43,0.26,7,Rain,200
2013-10-7,59,54,48,53,46,41,93,74,55,30.15,29.89,29.74,10,8,3,18,9,25,0.64,7,Rain,251
2013-10-8,67,55,43,48,44,41,93,68,42,30.30,30.26,30.16,10,9,6,15,5,18,0.00,1,,36
2013-10-9,69,57,44,46,43,40,92,64,35,30.33,30.28,30.23,10,10,7,14,7,18,0.00,1,,94
2013-10-10,70,57,43,47,42,37,86,59,31,30.24,30.18,30.12,10,10,10,8,5,12,0.00,4,,58
2013-10-11,73,60,46,54,47,42,93,64,35,30.14,30.10,30.06,10,10,9,12,6,17,0.00,2,,41
2013-10-12,75,63,51,63,53,41,81,68,55,30.14,30.10,30.07,10,10,7,14,6,17,0.00,4,,122
2013-10-13,69,64,59,61,57,50,90,81,72,30.29,30.23,30.14,10,8,2,15,7,18,0.02,8,Rain,354
2013-10-14,68,58,48,51,48,42,83,68,52,30.35,30.30,30.24,10,10,10,16,8,21,0.00,4,,33
2013-10-15,64,55,45,59,52,41,93,86,78,30.25,30.12,29.96,10,7,0,9,6,10,T,7,Fog-Rain,141
2013-10-16,64,56,48,63,58,45,97,87,77,29.95,29.89,29.83,10,6,0,17,10,17,0.00,8,Rain,218
2013-10-17,55,49,42,49,45,41,100,86,72,29.94,29.88,29.77,10,8,2,12,6,12,0.00,5,Rain,246
2013-10-18,63,53,42,49,43,40,96,74,51,30.01,29.96,29.91,10,10,8,14,9,14,0.00,2,,234
2013-10-19,53,47,40,48,42,23,100,67,33,29.94,29.85,29.71,10,8,2,13,8,13,0.17,6,Rain,231
2013-10-20,57,48,39,40,34,28,79,61,43,30.02,29.98,29.91,10,10,10,16,10,16,0.00,2,,216
2013-10-21,62,52,41,46,39,37,93,68,43,30.01,29.94,29.86,10,10,7,18,11,22,0.10,5,Rain,214
2013-10-22,53,45,36,44,34,27,100,69,38,29.98,29.92,29.87,10,9,5,15,10,15,0.07,6,Rain,254
2013-10-23,44,39,33,38,32,29,100,79,58,29.96,29.85,29.79,10,9,6,16,8,16,0.00,6,Rain,272
2013-10-24,44,39,33,33,31,29,92,76,60,30.17,30.04,29.94,10,10,8,14,9,14,T,4,Rain,256
2013-10-25,47,40,32,34,31,28,92,73,53,30.36,30.28,30.18,10,10,7,14,8,14,0.00,5,,263
2013-10-26,45,39,33,34,26,22,76,60,43,30.23,30.03,29.90,10,10,10,21,14,29,0.00,5,Rain,215
2013-10-27,51,43,34,35,30,24,92,57,22,30.10,30.06,30.01,10,9,7,8,4,8,0.00,3,,242
2013-10-28,56,43,30,40,34,29,92,69,45,30.34,30.23,30.11,10,10,10,9,4,9,0.00,3,,217
2013-10-29,58,45,32,39,35,30,96,70,43,30.42,30.35,30.26,10,9,5,7,3,7,0.00,3,,88
2013-10-30,65,54,42,57,43,35,93,71,48,30.24,30.17,30.06,10,9,7,9,4,9,0.00,5,,195
2013-10-31,64,61,58,59,57,55,100,87,73,30.04,29.76,29.34,8,4,2,23,17,23,0.64,8,Rain,199